[[{"header":{"parameterUnit":"m.s-1","parameterCategory":1,"la1":30.2991,"la2":30.254,"lo1":-89.0895,"lo2":-89.0444,"dy":0.0017,"dx":0.0017,"nx":28,"ny":28,"refTime":"2024-04-10T21:00:00:Z","depth":0,"parameterNumber":2,"parameterNumberName":"U-component_of_WINDS"},"data":[0,0,0,0,0,0,0,0,0,0,0,0,0,0,0,0,0,0,0,0,0,0,0,0,0,0,0,0,0,0,0,0,0,0,0,0,0,0,0,0,0,0,0,0,0,0,0,0,0,0,0,0,0,0,0,0,0,0,1.2108,1.2105,0,1.1742,1.1738,1.1734,1.1532,1.1531,1.1531,1.153,1.1147,1.1137,1.1128,0,0,0,0,0,0,0,0,0,0,0,0,0,1.2626,1.2617,1.2109,1.2104,1.21,1.1743,1.1738,1.1733,1.1532,1.1531,1.153,1.153,1.115,1.1138,1.1127,0,0,0,0,0,0,0,0,0,0,0,0,0,1.2345,1.2615,1.211,1.1957,1.1939,1.1744,1.1738,1.1731,1.1532,1.1531,1.153,1.153,1.1154,1.1139,1.1125,1.1051,0,0,1.1081,1.1074,0,0,0,0,0,0,0,0,1.2361,1.2326,1.1984,1.1967,1.1947,1.1682,1.1779,1.1503,1.1532,1.1686,1.153,1.1529,1.1325,1.1296,1.1229,1.1033,1.1017,1.1079,1.107,1.1064,1.106,0,0,0,0,0,0,0,1.238,1.234,1.1963,1.1979,1.1956,1.1903,1.1862,1.1726,1.1514,1.1673,1.1657,1.1617,1.1315,1.1243,1.1218,1.1011,1.108,1.1067,1.1058,1.1052,1.0735,1.0735,0,0,0,0,0,0,1.2426,1.2358,1.1975,1.1952,1.2156,1.1895,1.1849,1.1768,1.1515,1.1476,1.1618,1.1609,1.1269,1.1236,1.1204,1.11,1.1064,1.1051,1.1042,1.0735,1.0735,1.0735,0,0,0,0,0,0,1.2438,1.2394,1.199,1.2151,1.2095,1.1887,1.1797,1.1761,1.169,1.1474,1.1434,1.1585,1.1267,1.1225,1.1091,1.1084,1.1044,1.1031,1.0734,1.0735,1.0735,1.0893,0,0,0,0,0,0,1.2453,1.2399,1.2371,1.2152,1.2088,1.1886,1.1797,1.1754,1.1666,1.1651,1.1432,1.1395,1.1263,1.1114,1.1077,1.1063,1.1019,1.0734,1.0734,1.0735,1.0887,1.0898,1.0908,0,0,0,0,0,1.2473,1.2428,1.2371,1.2325,1.2049,1.1886,1.1849,1.17,1.1667,1.1635,1.1496,1.1402,1.1091,1.1102,1.1058,1.104,1.0733,1.0734,1.0735,1.0882,1.0896,1.0908,0,0,0,0,0,0,1.2648,1.2397,1.233,1.2214,1.2074,1.1852,1.1808,1.1719,1.1583,1.1574,1.1392,1.1344,1.1228,1.112,1.1137,1.0955,1.0902,1.0894,1.1029,1.1041,1.1051,1.1078,1.1007,0,0,0,0,0,1.2675,1.2566,1.2351,1.2269,1.2202,1.2018,1.1942,1.1839,1.1685,1.1623,1.1475,1.1327,1.1195,1.1112,1.0979,1.0871,1.0819,1.0837,1.0848,1.0857,1.0852,1.0785,1.079,1.0738,1.0738,1.0738,0,0,1.2725,1.2575,1.2517,1.2301,1.218,1.2069,1.1969,1.1856,1.1771,1.1605,1.147,1.1357,1.1179,1.1058,1.0997,1.0965,1.0855,1.0858,1.0868,1.0856,1.0787,1.0792,1.0796,1.0738,1.0738,1.0738,0,0,1.2762,1.2638,1.2556,1.2438,1.2257,1.2135,1.2116,1.1908,1.1827,1.1689,1.1562,1.1457,1.1235,1.1113,1.1022,1.1015,1.0922,1.0976,1.103,1.0968,1.0972,1.0974,1.097,1.0971,1.0972,1.0972,1.0972,0,1.2847,1.2679,1.2524,1.2419,1.2327,1.2175,1.2089,1.198,1.1765,1.1703,1.1671,1.1389,1.1258,1.1106,1.1105,1.1037,1.1007,1.0999,1.0984,1.0985,1.0985,1.0979,1.0978,1.098,1.0979,1.0978,1.0977,0,1.2792,1.2677,1.2632,1.2431,1.2333,1.2238,1.2067,1.1987,1.1893,1.1774,1.1635,1.1474,1.1305,1.1262,1.1168,1.1096,1.1081,1.102,1.0962,1.1001,1.0992,1.0988,1.0991,1.0988,1.0986,1.0984,0,0,1.2927,1.2644,1.2629,1.2536,1.2326,1.2232,1.213,1.1968,1.1902,1.1758,1.1666,1.1482,1.1423,1.1321,1.1212,1.1157,1.1159,1.11,1.1093,1.1116,1.1068,1.1115,1.1115,1.1098,1.1097,1.1096,1.1082,0,1.2932,1.2744,1.2603,1.2467,1.2357,1.2212,1.2122,1.1982,1.1868,1.1756,1.1629,1.1501,1.1434,1.1371,1.1311,1.1173,1.1147,1.1171,1.1007,1.1004,1.1056,1.111,1.1159,1.1154,1.1078,1.1077,1.1077,0,1.2912,1.2777,1.2633,1.2434,1.2382,1.2305,1.2145,1.2041,1.1879,1.1799,1.1686,1.1574,1.1456,1.1413,1.1247,1.1267,1.1191,1.1113,1.1109,1.1086,1.1042,1.1088,1.1149,1.1148,1.107,1.107,1.1071,0,1.3024,1.2806,1.269,1.2615,1.2381,1.233,1.2229,1.2066,1.1978,1.1837,1.1778,1.1625,1.1541,1.1424,1.1273,1.1255,1.1122,1.1066,1.105,1.1054,1.1027,1.103,1.1076,1.0982,1.0982,1.0982,1.0982,0,1.3043,1.296,1.2737,1.2666,1.2568,1.2405,1.2311,1.2198,1.2054,1.1957,1.1821,1.1731,1.1538,1.1425,1.1306,1.1186,1.1149,1.1079,1.1048,1.109,1.1099,1.1037,1.1032,1.0982,1.0982,1.0982,1.0982,0,1.315,1.2999,1.2863,1.2654,1.2599,1.2536,1.2355,1.2279,1.2159,1.2037,1.1998,1.1808,1.1667,1.1506,1.1311,1.1231,1.1119,1.1075,1.1175,1.1157,1.115,1.1153,1.1156,1.1147,1.1063,1.1064,1.1065,0,1.3172,1.3105,1.289,1.2816,1.2721,1.2603,1.2513,1.2351,1.2262,1.2073,1.2019,1.1869,1.174,1.1522,1.1364,1.1214,1.1164,1.1175,1.114,1.1184,1.1161,1.1167,1.1158,1.1185,1.1186,1.1188,1.1189,0,1.3226,1.3155,1.3032,1.2883,1.2781,1.2655,1.2523,1.247,1.228,1.2187,1.2043,1.1944,1.1746,1.1598,1.1429,1.1321,1.1223,1.1202,1.119,1.1231,1.1292,1.1257,1.12,1.1202,1.1201,1.12,1.1199,1.1198,1.3288,1.3222,1.3061,1.2928,1.2813,1.2694,1.2612,1.2483,1.2361,1.219,1.2101,1.1958,1.1796,1.1559,1.1456,1.134,1.1306,1.129,1.1285,1.1283,1.1294,1.1313,1.1308,1.1308,1.1307,1.1306,1.1306,0,1.3334,1.3224,1.3104,1.2926,1.2822,1.2742,1.2592,1.2509,1.2386,1.2245,1.2122,1.1957,1.1812,1.1645,1.1489,1.1428,1.1379,1.1393,1.1394,1.1371,1.1334,1.1359,1.1435,1.1435,1.1435,1.1435,1.1435,1.1435,1.3345,1.3228,1.3138,1.2962,1.285,1.2712,1.2633,1.2521,1.2408,1.223,1.2111,1.2004,1.1851,1.1684,1.1547,1.1501,1.1449,1.1476,1.1417,1.1385,1.1374,1.1363,1.1386,1.1467,1.1467,1.1463,1.1463,1.1463]},{"header":{"parameterUnit":"m.s-1","parameterCategory":1,"la1":30.2991,"la2":30.254,"lo1":-89.0895,"lo2":-89.0444,"dy":0.0017,"dx":0.0017,"nx":28,"ny":28,"refTime":"2024-04-10T21:00:00:Z","depth":0,"parameterNumber":3,"parameterNumberName":"V-component_of_WINDS"},"data":[0,0,0,0,0,0,0,0,0,0,0,0,0,0,0,0,0,0,0,0,0,0,0,0,0,0,0,0,0,0,0,0,0,0,0,0,0,0,0,0,0,0,0,0,0,0,0,0,0,0,0,0,0,0,0,0,0,0,7.3797,7.38,0,7.408,7.4083,7.4086,7.4143,7.4141,7.4139,7.4137,7.4421,7.443,7.4439,0,0,0,0,0,0,0,0,0,0,0,0,0,7.3299,7.3308,7.3796,7.38,7.3803,7.4079,7.4083,7.4087,7.4144,7.4141,7.4138,7.4136,7.4417,7.4429,7.444,0,0,0,0,0,0,0,0,0,0,0,0,0,7.3541,7.3311,7.3796,7.3865,7.3874,7.4078,7.4083,7.4088,7.4144,7.4141,7.4138,7.4135,7.4414,7.4428,7.4442,7.4595,0,0,7.4486,7.4492,0,0,0,0,0,0,0,0,7.3528,7.356,7.3851,7.3861,7.3871,7.4073,7.4012,7.4258,7.4145,7.4041,7.4137,7.4133,7.4307,7.433,7.439,7.4608,7.462,7.4487,7.4496,7.4502,7.4506,0,0,0,0,0,0,0,7.3511,7.3548,7.3908,7.3855,7.3868,7.388,7.3911,7.4059,7.4189,7.405,7.4055,7.4088,7.4312,7.4376,7.4397,7.4625,7.4486,7.4499,7.4508,7.4514,7.4983,7.4987,0,0,0,0,0,0,7.3483,7.3533,7.3899,7.3917,7.3688,7.3892,7.3926,7.4011,7.4187,7.4211,7.4091,7.409,7.4353,7.438,7.4407,7.46,7.4502,7.4515,7.4523,7.498,7.4984,7.4988,0,0,0,0,0,0,7.3472,7.3515,7.3888,7.3727,7.3775,7.3904,7.3999,7.4019,7.4083,7.4218,7.4241,7.4133,7.4352,7.4387,7.4549,7.461,7.4521,7.4535,7.4975,7.4981,7.4986,7.4984,0,0,0,0,0,0,7.3457,7.351,7.3571,7.3728,7.3784,7.4026,7.4003,7.4027,7.4108,7.411,7.4264,7.4286,7.4352,7.4527,7.4563,7.4628,7.4546,7.497,7.4978,7.4985,7.4979,7.4989,7.4998,0,0,0,0,0,7.3439,7.3558,7.3574,7.3618,7.3863,7.403,7.4061,7.4137,7.4113,7.4175,7.4261,7.4281,7.4597,7.4543,7.4584,7.4654,7.4967,7.4976,7.4984,7.4975,7.4987,7.4997,0,0,0,0,0,0,7.3403,7.3579,7.36,7.3773,7.3886,7.4039,7.4119,7.4147,7.4268,7.4264,7.435,7.4384,7.4541,7.4614,7.455,7.4812,7.478,7.4798,7.476,7.4772,7.4781,7.4761,7.4558,0,0,0,0,0,7.3415,7.3538,7.3685,7.3823,7.3879,7.3989,7.4064,7.4113,7.4233,7.4281,7.4379,7.4493,7.4619,7.4699,7.4822,7.499,7.5024,7.5058,7.5067,7.5074,7.5088,7.5183,7.5201,7.5017,7.5017,7.5017,0,0,7.3441,7.3553,7.3625,7.3819,7.3912,7.4036,7.4029,7.416,7.4252,7.43,7.446,7.4536,7.4668,7.4834,7.4912,7.49,7.5147,7.5085,7.509,7.5101,7.5194,7.5211,7.5227,7.5023,7.5022,7.5021,0,0,7.3553,7.3649,7.3776,7.3871,7.4014,7.4086,7.4116,7.4266,7.4319,7.4481,7.452,7.4629,7.4843,7.4937,7.5012,7.516,7.5183,7.5197,7.5245,7.5337,7.5351,7.5364,7.5418,7.5436,7.521,7.521,7.521,0,7.3567,7.3757,7.3837,7.3968,7.4052,7.4103,7.4231,7.4318,7.4492,7.4548,7.4532,7.4803,7.4895,7.5084,7.5121,7.518,7.5216,7.518,7.5343,7.5357,7.5371,7.5423,7.5442,7.5211,7.5211,7.5211,7.5211,0,7.3768,7.3899,7.3984,7.4155,7.4248,7.4376,7.4474,7.4558,7.4599,7.4672,7.4836,7.4949,7.5097,7.5144,7.5184,7.5339,7.5327,7.5326,7.5296,7.5388,7.5438,7.5459,7.5213,7.5212,7.5212,7.5212,0,0,7.3865,7.4079,7.4109,7.4187,7.4349,7.4451,7.4581,7.4727,7.4798,7.4916,7.5027,7.5207,7.5208,7.5293,7.5343,7.5424,7.5535,7.5413,7.5417,7.5432,7.5714,7.5715,7.5736,7.555,7.5554,7.5557,7.5703,0,7.3997,7.4235,7.431,7.4507,7.463,7.468,7.4793,7.4903,7.4976,7.5088,7.5167,7.5294,7.5284,7.5336,7.5418,7.5504,7.5592,7.5494,7.5654,7.5658,7.562,7.5763,7.5764,7.5896,7.5723,7.5726,7.5729,0,7.4183,7.4308,7.4518,7.4665,7.4719,7.482,7.4961,7.5068,7.5193,7.524,7.5336,7.5381,7.5517,7.5478,7.5667,7.5598,7.5668,7.572,7.5727,7.5745,7.57,7.5786,7.594,7.596,7.576,7.5758,7.5755,0,7.4234,7.4454,7.4609,7.4674,7.4849,7.4919,7.4995,7.5117,7.5201,7.5322,7.5377,7.5512,7.5586,7.5689,7.5767,7.5732,7.595,7.5917,7.5992,7.599,7.6036,7.6033,7.6204,7.6079,7.6078,7.6078,7.6078,0,7.4375,7.4502,7.4634,7.4729,7.4873,7.4958,7.5096,7.5174,7.5283,7.5393,7.5443,7.5545,7.5642,7.5756,7.5818,7.5966,7.5998,7.6039,7.6054,7.6036,7.6031,7.6083,7.6076,7.6083,7.6082,7.6081,7.608,0,7.4457,7.4551,7.4723,7.4875,7.4917,7.5015,7.5145,7.5239,7.5313,7.5451,7.5488,7.5604,7.5741,7.583,7.6003,7.6045,7.6206,7.6218,7.6165,7.6173,7.6243,7.6235,7.6455,7.6489,7.6339,7.634,7.6341,0,7.4541,7.464,7.4804,7.4883,7.496,7.5085,7.5171,7.5258,7.5345,7.5497,7.5571,7.5712,7.583,7.6046,7.6144,7.6277,7.6293,7.6361,7.6313,7.6292,7.6296,7.629,7.63,7.6369,7.637,7.6371,7.6372,0,7.4681,7.4723,7.4846,7.4987,7.5089,7.5202,7.5316,7.5377,7.5483,7.5578,7.572,7.5811,7.599,7.6129,7.6271,7.6347,7.6378,7.6386,7.6411,7.6393,7.6359,7.638,7.6187,7.6381,7.638,7.6379,7.6379,7.6379,7.4768,7.4859,7.4989,7.5125,7.522,7.5326,7.5422,7.5509,7.5629,7.5784,7.5827,7.5975,7.6098,7.6293,7.6371,7.6487,7.6479,7.6514,7.6523,7.6531,7.6532,7.634,7.6513,7.6513,7.6513,7.6512,7.6512,0,7.4911,7.4998,7.5122,7.5281,7.5388,7.5409,7.5536,7.5623,7.5754,7.5867,7.5983,7.6146,7.6281,7.639,7.6529,7.6601,7.6618,7.6635,7.6631,7.6648,7.6531,7.6497,7.6619,7.6618,7.6618,7.6618,7.6618,7.6618,7.4999,7.5155,7.5212,7.5415,7.55,7.5648,7.5719,7.5816,7.5907,7.6088,7.6202,7.6273,7.6384,7.6532,7.6656,7.6685,7.6734,7.6747,7.6779,7.6668,7.6656,7.6645,7.6613,7.6757,7.6757,7.6886,7.6887,7.6888]}]]